Simultaneous Nadir Overpasses (SNOs) Predictions

Prediction of SNOs between METOP-C and LANDSAT-8 Satellite Orbit:

Table of predicted SNOs for the next 14.0 days since TLE Epoch: 2/15/2025
Index Date (METOP-C) Time (METOP-C) Lat,Lon (METOP-C) SZA (METOP-C ) Date (LANDSAT-8) Time (LANDSAT-8) Lat,Lon (LANDSAT-8) SZA (LANDSAT-8 ) Distance(km) Time Diff (sec)
1 02/16/2025 14:00:21 -81.13,-170.45 85.14 02/16/2025 14:00:46 -81.13,-170.42 85.12 0.74 25
2 02/16/2025 14:51:01 81.14, -2.79 94.90 02/16/2025 14:50:12 81.14, -2.71 94.88 1.54 49
3 02/19/2025 09:34:40 -81.13,-103.86 86.10 02/19/2025 09:34:59 -81.13,-103.93 86.10 1.20 19
4 02/19/2025 10:25:20 81.14, 63.74 93.92 02/19/2025 10:24:25 81.14, 63.75 93.90 0.59 55
5 02/22/2025 05:09:01 -81.12, -37.76 87.14 02/22/2025 05:09:13 -81.12, -37.74 87.14 0.55 12
6 02/22/2025 05:59:40 81.14, 130.17 92.92 02/22/2025 05:58:38 81.14, 130.28 92.91 1.89 62
7 02/25/2025 00:43:20 -81.13, 28.99 88.13 02/25/2025 00:43:25 -81.13, 28.89 88.14 1.65 5
8 02/25/2025 01:33:59 81.15,-163.13 91.93 02/25/2025 01:32:50 81.15,-163.11 91.90 0.30 69
9 02/27/2025 19:27:00 81.10, -72.90 90.73 02/27/2025 19:28:10 81.10, -72.80 90.77 1.72 70



Historial Predications of SNOs between METOP-C and LANDSAT-8
